Location: *
(43.0409°N, 0.1694°E)
Time: 12:34:13
(UTC+00:00)

ATLAS 3B R/B - Pass Details

Date: 03 October 2023
Orbit: 954 x 1241 km, 63.8° (Epoch: 27 October)

Event Time Altitude Azimuth Distance (km) Brightness Sun altitude
Rises 03:46:40 0° 318° (NW) 4,157 5.6 -24.6°
Enters shadow 03:46:56 - 318° (NW) 4,073 5.5 -24.5°
Exits shadow 03:57:30 37° 233° (SW) 1,836 3.4 -22.7°
Drops below altitude 10° 04:03:32 10° 183° (S) 3,168 5.0 -21.6°
Sets 04:06:28 0° 176° (S) 4,106 5.7 -21.1°
